Torna al catalogo

STARLINK-36685

AttivoComunicazioniVLEO
NORAD 68717·PAYLOAD·🇺🇸 United States

Lanciato Apr 14, 2026 da Cape Canaveral Space Force Station

Loading…

Prossimi Passaggi (prossime 24 ore)

TLE

AggiornatoSource: CelesTrak SupGP

Epoca: Sep 15, 2026, 03:38 UTC

1 68717C 26081U   26258.15187500 -.00055201  00000+0 -16310-2 0  2581
2 68717  53.1588 230.6458 0001394  90.5421  81.3211 15.34417266    13

Traccia STARLINK-36685 in tempo reale con AllMySat

Download on the App Store